Regional Weather Roundup
Issued by NWS

Home | Current Version | Previous Version | Text Only | Print | Product List | Glossary Off
Versions: 1 2 3 4 5 6 7 8 9 10 11 12 13 14 15 16 17 18 19 20 21 22 23 24 25 26 27 28 29 30 31 32 33 34 35 36 37 38 39 40 41 42 43 44 45 46 47 48 49 50

000
ASUS43 KDTX 170610
RWRMI
MICHIGAN HOURLY REGIONAL WEATHER ROUNDUP
NATIONAL WEATHER SERVICE DETROIT/PONTIAC MI
100 AM EST TUE JAN 17 2017

NOTE: "FAIR" INDICATES FEW OR NO CLOUDS BELOW 12,000 FEET WITH NO
SIGNIFICANT WEATHER AND/OR OBSTRUCTION TO VISIBILITY.

MIZ047>049-052>055-059>063-066>070-074>076-081>083-170700-
SOUTHEAST LOWER MICHIGAN

CITY           SKY/WX    TMP DP  RH WIND       PRES   REMARKS
ADRIAN         MIX PCPN  32  32 100 E10       30.03F FOG     WCI  24
6HR MIN TEMP:  32; 6HR MAX TEMP:  32; 6HR PCP:  0.15;

ALMA           MIX PCPN  33  32  96 E6        30.03F WCI  27
ANN ARBOR      FRZ RAIN  32  32 100 NE8       30.04F FOG     WCI  25
BAD AXE        MIX PCPN  31  30  95 SE6       30.10F WCI  26
6HR MIN TEMP:  31; 6HR MAX TEMP:  32;

CARO           MIX PCPN  32  32  98 SE8       30.07F WCI  25
DETROIT CITY   MIX PCPN  32  30  93 E12         N/A  WCI  23
DETROIT        LGT RAIN  33  31  92 E9        30.07F FOG     WCI  25
6HR MIN TEMP:  32; 6HR MAX TEMP:  34; 6HR PCP:  0.14;

FLINT          LGT RAIN  33  31  92 E12       30.03F WCI  24
6HR MIN TEMP:  32; 6HR MAX TEMP:  33; 6HR PCP:  0.17;

GROSSE ILE     CLOUDY    32  32  98 E7        30.06F FOG     WCI  26
6HR MIN TEMP:  32; 6HR MAX TEMP:  33; 6HR PCP:  0.05;

HILLSDALE      MIX PCPN  32  32 100 E10       29.96F WCI  24
HOWELL         LGT SNOW  33  32  97 E8        30.01F WCI  25

CITY           SKY/WX    TMP DP  RH WIND       PRES   REMARKS
JACKSON        MIX PCPN  33  31  92 E13       29.98F FOG     WCI  24
6HR MIN TEMP:  32; 6HR MAX TEMP:  33; 6HR PCP:  0.25;

LAMBERTVILLE   MIX PCPN  35  33  94 E7        30.03F WCI  29
6HR MIN TEMP:  34; 6HR MAX TEMP:  35;

LANSING        LGT RAIN  34  31  88 E9        30.00F FOG     WCI  27
6HR MIN TEMP:  32; 6HR MAX TEMP:  34; 6HR PCP:  0.22;

LAPEER         MIX PCPN  32  31  96 E5        30.06F WCI  27
6HR MIN TEMP:  32; 6HR MAX TEMP:  32; 6HR PCP:  0.06;

MASON          LGT SNOW  33  32  98 SE9       30.00F WCI  25
MONROE         MIX PCPN  34  33  99 E9        30.04F WCI  26
6HR MIN TEMP:  33; 6HR MAX TEMP:  34; 6HR PCP:  0.08;

MT. CLEMENS    FRZ RAIN  32  32  99 E6        30.07F WCI  26
6HR MIN TEMP:  31; 6HR MAX TEMP:  33; 6HR PCP:  0.12;

PONTIAC        MIX PCPN  31  28  89 E10       30.04F WCI  22
6HR MIN TEMP:  31; 6HR MAX TEMP:  32; 6HR PCP:  0.17;

PORT HOPE        N/A     32  30  92 SE10      30.10F WCI  24
6HR MIN TEMP:  31; 6HR MAX TEMP:  34; 6HR PCP:  0.07;

PORT HURON     MIX PCPN  32  30  93 E3        30.12F
TRI CITIES     FRZ RAIN  32  32 100 E9        30.07F FOG     WCI  24
6HR MIN TEMP:  32; 6HR MAX TEMP:  33; 6HR PCP:  0.23;

MIDLAND        MIX PCPN  33  32  96 E9        30.06F WCI  25
6HR MIN TEMP:  32; 6HR MAX TEMP:  33; 6HR PCP:  0.10;

TROY           MIX PCPN  32  29  90 E8        30.09F WCI  25
SAGINAW HB     MIX PCPN  32  32 100 E5        30.06F WCI  27
$$
MIZ043>046-050>051-056>058-064>065-071>073-077>080-170700-
SOUTHWEST LOWER MICHIGAN

CITY           SKY/WX    TMP DP  RH WIND       PRES   REMARKS
BATTLE CREEK   RAIN      36  36 100 E7        29.94F FOG     WCI  30
6HR MIN TEMP:  34; 6HR MAX TEMP:  36; 6HR PCP:  0.21;

BENTON HARBOR  LGT RAIN  41  39  93 SE15      29.88F
6HR MIN TEMP:  37; 6HR MAX TEMP:  41; 6HR PCP:  0.16;

BIG RAPIDS     MIX PCPN  33  32  96 E7        29.98F WCI  26
6HR MIN TEMP:  31; 6HR MAX TEMP:  33; 6HR PCP:  0.12;

COLDWATER      LGT SNOW  37  37 100 SE12      29.94F WCI  29
6HR MIN TEMP:  34; 6HR MAX TEMP:  37;

FREMONT        LGT RAIN  34  34 100 E9        29.96F WCI  26
HOLLAND        LGT RAIN  35  34  96 E10       29.92F WCI  27
6HR MIN TEMP:  33; 6HR MAX TEMP:  35; 6HR PCP:  0.36;

GRAND RAPIDS   RAIN      33  32  96 E14       29.94F FOG     WCI  23
6HR MIN TEMP:  33; 6HR MAX TEMP:  33; 6HR PCP:  0.27;

IONIA          MIX PCPN  32  32 100 E10       29.97F WCI  24
6HR MIN TEMP:  32; 6HR MAX TEMP:  32; 6HR PCP:  0.06;

KALAMAZOO      RAIN      37  35  92 VRB3      29.94F FOG
6HR MIN TEMP:  35; 6HR MAX TEMP:  37; 6HR PCP:  0.18;

LUDINGTON      LGT RAIN  34  34 100 E12       29.94F WCI  25
6HR MIN TEMP:  32; 6HR MAX TEMP:  34; 6HR PCP:  0.37;

MARSHALL       DRIZZLE   35  35  98 E9        29.95F WCI  28
6HR MIN TEMP:  33; 6HR MAX TEMP:  35; 6HR PCP:  0.13;

MOUNT PLEASANT MIX PCPN  32  32  99 E6        30.03F WCI  27
6HR MIN TEMP:  31; 6HR MAX TEMP:  32; 6HR PCP:  0.14;

MUSKEGON       LGT RAIN  35  34  96 E14       29.93F FOG     WCI  26
6HR MIN TEMP:  34; 6HR MAX TEMP:  36; 6HR PCP:  0.21;

SOUTH HAVEN    DRIZZLE   37  37  98 SE9       29.89F WCI  31
$$
MIZ016>042-170700-
NORTHERN LOWER MICHIGAN

CITY           SKY/WX    TMP DP  RH WIND       PRES   REMARKS
ALPENA         MOCLDY    19  14  81 CALM      30.10F
6HR MIN TEMP:  18; 6HR MAX TEMP:  27;

BEAVER ISLAND  PTCLDY    27  25  93 CALM      30.05F
BELLAIRE       CLOUDY    26  25  95 CALM      30.04F
6HR MIN TEMP:  21; 6HR MAX TEMP:  27;

CADILLAC       MIX PCPN  33  32  97 E8        29.99F WCI  25
CHARLEVOIX     PTCLDY    29  23  77 SE6       30.07F WCI  23
FRANKFORT      MIX PCPN  34  33  96 E3        29.99F
GAYLORD        CLOUDY    30  18  60 SE7       30.02F WCI  23
6HR MIN TEMP:  27; 6HR MAX TEMP:  31;

GRAYLING       LGT SNOW  31  29  92 E6        30.04F WCI  25
6HR MIN TEMP:  23; 6HR MAX TEMP:  31;

HARBOR SPRINGS CLOUDY    24  21  91 NE5       30.05F WCI  18
HOUGHTON LAKE  FRZ RAIN  32  30  92 SE8       30.05F WCI  25
6HR MIN TEMP:  30; 6HR MAX TEMP:  33; 6HR PCP:  0.10;

MANISTEE       LGT RAIN  33  32  96 E10       29.96F WCI  25
OSCODA         LGT SNOW  32  30  92 CALM      30.10F
6HR MIN TEMP:  28; 6HR MAX TEMP:  32;

PELLSTON       PTCLDY    20  17  88 CALM      30.07F FOG
6HR MIN TEMP:  18; 6HR MAX TEMP:  29;

ROGERS CITY    CLOUDY    25  21  83 CALM      30.10F
TRAVERSE CITY  LGT RAIN  34  31  88 E3        30.02F
6HR MIN TEMP:  29; 6HR MAX TEMP:  36; 6HR PCP:  0.04;

$$
MIZ007>008-015-170700-
EASTERN UPPER MICHIGAN

CITY           SKY/WX    TMP DP  RH WIND       PRES   REMARKS
KINROSS        CLOUDY    25  24  96 E5        30.08F WCI  19
6HR MIN TEMP:  20; 6HR MAX TEMP:  27;

MACKINAC ISLAN PTCLDY    31  27  84 E9        30.07F WCI  23
6HR MIN TEMP:  26; 6HR MAX TEMP:  32;

NEWBERRY       CLOUDY    22  21  96 CALM      30.05F
6HR MIN TEMP:  17; 6HR MAX TEMP:  23;

S. S. MARIE    MOCLDY    24  20  84 NE6       30.09F WCI  17
6HR MIN TEMP:  24; 6HR MAX TEMP:  28;

$$
MIZ004>006-011>014-085-170700-
CENTRAL UPPER MICHIGAN

CITY           SKY/WX    TMP DP  RH WIND       PRES   REMARKS
MANISTIQUE     CLOUDY    22  21  97 NE3       30.04F FOG
6HR MIN TEMP:  20; 6HR MAX TEMP:  24;

ESCANABA       CLOUDY    21  19  92 CALM      30.03
6HR MIN TEMP:  21; 6HR MAX TEMP:  25;

SAWYER-GWINN   CLOUDY    20  18  92 CALM      30.01F
6HR MIN TEMP:  20; 6HR MAX TEMP:  27;

$$
MIZ001>003-009>011-084-170700-
WESTERN UPPER MICHIGAN

CITY           SKY/WX    TMP DP  RH WIND       PRES   REMARKS
IRON MOUNTAIN  CLOUDY    19  14  81 CALM      29.99S
6HR MIN TEMP:  19; 6HR MAX TEMP:  27;

HOUGHTON       CLOUDY    30  26  85 E8        30.00F WCI  22
6HR MIN TEMP:  22; 6HR MAX TEMP:  31;

COPPER HARBOR    N/A     26  24  92 CALM      30.03F
6HR MIN TEMP:  24; 6HR MAX TEMP:  28;

IRONWOOD       CLOUDY    25  21  85 CALM      30.00S
6HR MIN TEMP:  21; 6HR MAX TEMP:  30;

$$

ABBREVIATIONS USED IN REMARKS
   TC - TEMPERATURE IN CELSIUS
  WCI - WIND CHILL INDEX
   HX - HEAT INDEX
  VSB - VISIBILITY





USA.gov is the U.S. government's official web portal to all federal, state and local government web resources and services.